• In Romania
  • List of Countries
  • For 7 days
  • Water Temperature
  • Satellite Maps
  • Weather Map
  • Weather Widgets
  • user-avatar
    Login

    Hourly Weather Perth

    Today, 19 November, Sunday

    Time Temperature Precipitation Wind Pressure Humidity
    00:00 +17°C° 0 mm 3 mps 757 mmHg 90%
    01:00 +17°C° 0 mm 3 mps 757 mmHg 91%
    02:00 +17°C° 0 mm 3 mps 757 mmHg 92%
    03:00 +16°C° 0 mm 2 mps 757 mmHg 92%
    04:00 +16°C° 0 mm 2 mps 757 mmHg 92%
    05:00 +16°C° 0 mm 1 mps 757 mmHg 92%
    06:00 +19°C° 0 mm 1 mps 758 mmHg 83%
    07:00 +21°C° 0 mm 1 mps 758 mmHg 73%
    08:00 +23°C° 0 mm 1 mps 759 mmHg 64%
    09:00 +24°C° 0 mm 1 mps 758 mmHg 58%
    10:00 +25°C° 0 mm 2 mps 758 mmHg 52%
    11:00 +26°C° 0 mm 3 mps 758 mmHg 46%
    12:00 +26°C° 0 mm 4 mps 758 mmHg 47%
    13:00 +26°C° 0 mm 4 mps 758 mmHg 48%
    14:00 +26°C° 0 mm 5 mps 757 mmHg 51%
    15:00 +25°C° 0 mm 5 mps 757 mmHg 53%
    16:00 +25°C° 0 mm 5 mps 757 mmHg 55%
    17:00 +23°C° 0 mm 5 mps 757 mmHg 58%
    18:00 +21°C° 0 mm 4 mps 757 mmHg 63%
    19:00 +20°C° 0 mm 4 mps 758 mmHg 69%
    20:00 +18°C° 0 mm 3 mps 758 mmHg 75%
    21:00 +18°C° 0 mm 3 mps 758 mmHg 76%
    22:00 +17°C° 0 mm 3 mps 758 mmHg 78%
    23:00 +17°C° 0 mm 3 mps 758 mmHg 80%

    Tomorrow, 20 November, Monday

    Time Temperature Precipitation Wind Pressure Humidity
    00:00 +16°C° 0 mm 3 mps 758 mmHg 81%
    01:00 +16°C° 0 mm 3 mps 758 mmHg 82%
    02:00 +16°C° 0 mm 2 mps 758 mmHg 83%
    03:00 +15°C° 0 mm 2 mps 758 mmHg 83%
    04:00 +15°C° 0 mm 2 mps 758 mmHg 83%
    05:00 +15°C° 0 mm 2 mps 758 mmHg 84%
    06:00 +17°C° 0 mm 2 mps 758 mmHg 76%
    07:00 +18°C° 0 mm 3 mps 759 mmHg 68%
    08:00 +20°C° 0 mm 3 mps 759 mmHg 59%
    09:00 +21°C° 0 mm 3 mps 759 mmHg 54%
    10:00 +22°C° 0 mm 3 mps 759 mmHg 49%
    11:00 +25°C° 0 mm 4 mps 759 mmHg 44%
    12:00 +25°C° 0 mm 4 mps 758 mmHg 43%
    13:00 +25°C° 0 mm 4 mps 758 mmHg 42%
    14:00 +26°C° 0 mm 5 mps 758 mmHg 41%
    15:00 +25°C° 0 mm 5 mps 758 mmHg 45%
    16:00 +25°C° 0 mm 5 mps 758 mmHg 49%
    17:00 +23°C° 0 mm 5 mps 758 mmHg 54%
    18:00 +22°C° 0 mm 5 mps 758 mmHg 61%
    19:00 +20°C° 0 mm 4 mps 758 mmHg 69%
    20:00 +19°C° 0 mm 4 mps 759 mmHg 77%
    21:00 +18°C° 0 mm 4 mps 759 mmHg 80%
    22:00 +18°C° 0 mm 4 mps 760 mmHg 83%
    23:00 +18°C° 0 mm 4 mps 760 mmHg 87%

    Day after tomorrow, 21 November, Tuesday

    Time Temperature Precipitation Wind Pressure Humidity
    00:00 +17°C° 0 mm 4 mps 760 mmHg 87%
    01:00 +17°C° 0 mm 4 mps 760 mmHg 88%
    02:00 +15°C° 0 mm 4 mps 760 mmHg 89%
    03:00 +15°C° 0 mm 5 mps 760 mmHg 87%
    04:00 +15°C° 0 mm 5 mps 761 mmHg 86%
    05:00 +14°C° 0 mm 5 mps 761 mmHg 85%
    06:00 +16°C° 0 mm 5 mps 761 mmHg 76%
    07:00 +17°C° 0 mm 5 mps 762 mmHg 66%
    08:00 +19°C° 0 mm 5 mps 762 mmHg 57%
    09:00 +21°C° 0 mm 5 mps 762 mmHg 50%
    10:00 +23°C° 0 mm 5 mps 762 mmHg 42%
    11:00 +25°C° 0 mm 4 mps 762 mmHg 35%
    12:00 +26°C° 0 mm 5 mps 761 mmHg 32%
    13:00 +27°C° 0 mm 5 mps 761 mmHg 29%
    14:00 +28°C° 0 mm 5 mps 760 mmHg 26%
    15:00 +28°C° 0 mm 5 mps 760 mmHg 26%
    16:00 +28°C° 0 mm 6 mps 760 mmHg 27%
    17:00 +28°C° 0 mm 6 mps 760 mmHg 27%
    18:00 +26°C° 0 mm 6 mps 760 mmHg 31%
    19:00 +23°C° 0 mm 5 mps 761 mmHg 35%
    20:00 +21°C° 0 mm 5 mps 761 mmHg 39%
    21:00 +21°C° 0 mm 5 mps 762 mmHg 39%
    22:00 +20°C° 0 mm 6 mps 762 mmHg 39%
    23:00 +20°C° 0 mm 6 mps 762 mmHg 40%

    22 November, Wednesday

    Time Temperature Precipitation Wind Pressure Humidity
    00:00 +19°C° 0 mm 6 mps 762 mmHg 41%
    01:00 +17°C° 0 mm 6 mps 762 mmHg 43%
    02:00 +16°C° 0 mm 7 mps 762 mmHg 45%
    03:00 +15°C° 0 mm 7 mps 762 mmHg 45%
    04:00 +15°C° 0 mm 6 mps 762 mmHg 46%
    05:00 +14°C° 0 mm 6 mps 762 mmHg 46%
    06:00 +15°C° 0 mm 6 mps 763 mmHg 44%
    07:00 +17°C° 0 mm 6 mps 763 mmHg 41%
    08:00 +19°C° 0 mm 6 mps 763 mmHg 39%
    09:00 +21°C° 0 mm 5 mps 763 mmHg 34%
    10:00 +25°C° 0 mm 5 mps 763 mmHg 28%
    11:00 +27°C° 0 mm 4 mps 762 mmHg 23%
    12:00 +28°C° 0 mm 4 mps 762 mmHg 20%
    13:00 +30°C° 0 mm 4 mps 761 mmHg 18%
    14:00 +32°C° 0 mm 4 mps 760 mmHg 16%
    15:00 +32°C° 0 mm 4 mps 760 mmHg 18%
    16:00 +30°C° 0 mm 5 mps 760 mmHg 19%
    17:00 +30°C° 0 mm 5 mps 759 mmHg 21%
    18:00 +28°C° 0 mm 5 mps 760 mmHg 27%
    19:00 +25°C° 0 mm 5 mps 760 mmHg 32%
    20:00 +22°C° 0 mm 5 mps 760 mmHg 38%
    21:00 +22°C° 0 mm 4 mps 760 mmHg 36%
    22:00 +21°C° 0 mm 4 mps 761 mmHg 35%
    23:00 +21°C° 0 mm 4 mps 761 mmHg 33%

    23 November, Thursday

    Time Temperature Precipitation Wind Pressure Humidity
    00:00 +20°C° 0 mm 5 mps 761 mmHg 38%
    01:00 +20°C° 0 mm 5 mps 760 mmHg 43%
    02:00 +19°C° 0 mm 6 mps 760 mmHg 48%
    03:00 +19°C° 0 mm 6 mps 760 mmHg 49%
    04:00 +17°C° 0 mm 6 mps 760 mmHg 51%
    05:00 +17°C° 0 mm 6 mps 761 mmHg 52%
    06:00 +19°C° 0 mm 6 mps 761 mmHg 48%
    07:00 +20°C° 0 mm 6 mps 761 mmHg 45%
    08:00 +22°C° 0 mm 6 mps 761 mmHg 41%
    09:00 +24°C° 0 mm 6 mps 761 mmHg 35%
    10:00 +28°C° 0 mm 5 mps 761 mmHg 30%
    11:00 +30°C° 0 mm 4 mps 760 mmHg 25%
    12:00 +32°C° 0 mm 4 mps 760 mmHg 23%
    13:00 +34°C° 0 mm 4 mps 759 mmHg 20%
    14:00 +35°C° 0 mm 3 mps 758 mmHg 18%
    15:00 +34°C° 0 mm 4 mps 758 mmHg 19%
    16:00 +34°C° 0 mm 4 mps 757 mmHg 19%
    17:00 +34°C° 0 mm 4 mps 757 mmHg 20%
    18:00 +32°C° 0 mm 4 mps 757 mmHg 24%
    19:00 +28°C° 0 mm 4 mps 758 mmHg 27%
    20:00 +26°C° 0 mm 4 mps 758 mmHg 31%
    21:00 +25°C° 0 mm 4 mps 758 mmHg 28%
    22:00 +25°C° 0 mm 4 mps 758 mmHg 26%
    23:00 +25°C° 0 mm 4 mps 758 mmHg 23%

    24 November, Friday

    Time Temperature Precipitation Wind Pressure Humidity
    00:00 +23°C° 0 mm 4 mps 757 mmHg 25%
    01:00 +23°C° 0 mm 5 mps 757 mmHg 28%
    02:00 +22°C° 0 mm 6 mps 757 mmHg 30%
    03:00 +22°C° 0 mm 5 mps 757 mmHg 32%
    04:00 +21°C° 0 mm 5 mps 757 mmHg 35%
    05:00 +20°C° 0 mm 5 mps 757 mmHg 38%
    06:00 +22°C° 0 mm 5 mps 757 mmHg 34%
    07:00 +25°C° 0 mm 5 mps 757 mmHg 30%
    08:00 +27°C° 0 mm 5 mps 757 mmHg 27%
    09:00 +30°C° 0 mm 4 mps 757 mmHg 23%
    10:00 +34°C° 0 mm 3 mps 756 mmHg 20%
    11:00 +37°C° 0 mm 2 mps 756 mmHg 16%
    12:00 +37°C° 0 mm 3 mps 755 mmHg 15%
    13:00 +38°C° 0 mm 3 mps 755 mmHg 14%
    14:00 +38°C° 0 mm 3 mps 754 mmHg 14%
    15:00 +37°C° 0 mm 4 mps 754 mmHg 16%
    16:00 +36°C° 0 mm 5 mps 754 mmHg 18%
    17:00 +35°C° 0 mm 5 mps 753 mmHg 21%
    18:00 +33°C° 0 mm 5 mps 754 mmHg 25%
    19:00 +29°C° 0 mm 5 mps 754 mmHg 28%
    20:00 +27°C° 0 mm 4 mps 754 mmHg 32%
    21:00 +26°C° 0 mm 4 mps 754 mmHg 33%
    22:00 +26°C° 0 mm 4 mps 754 mmHg 34%
    23:00 +25°C° 0 mm 3 mps 754 mmHg 34%
    Show more